Time,TemperatureF,DewpointF,PressureIn,WindDirection,WindDirectionDegrees,WindSpeedMPH,WindSpeedGustMPH,Humidity,HourlyPrecipIn,Conditions,Clouds,dailyrainin,SoftwareType,DateUTC
2013-07-03 08:06:00,65.0,59.0,30.08,WNW,298,0.0,-999.0,80,-99.99,,,-99.99,,2013-07-03 13:06:00,
2013-07-03 08:24:00,66.0,60.0,30.08,North,360,0.0,-999.0,80,-99.99,,,-99.99,,2013-07-03 13:24:00,
2013-07-03 08:35:00,67.0,59.0,30.09,North,360,0.0,-999.0,76,-99.99,,,-99.99,,2013-07-03 13:35:00,
2013-07-03 08:46:00,67.0,59.0,30.09,North,360,0.0,-999.0,76,-99.99,,,-99.99,,2013-07-03 13:46:00,
2013-07-03 08:54:00,68.0,60.0,30.09,NNW,346,0.0,-999.0,75,-99.99,,,-99.99,,2013-07-03 13:54:00,
2013-07-03 09:06:00,69.0,60.0,30.09,NNE,25,0.0,-999.0,74,-99.99,,,-99.99,,2013-07-03 14:06:00,
2013-07-03 09:15:00,70.0,61.0,30.09,NNE,17,0.0,-999.0,72,-99.99,,,-99.99,,2013-07-03 14:15:00,
2013-07-03 09:26:00,69.0,60.0,30.09,North,5,0.0,-999.0,73,-99.99,,,-99.99,,2013-07-03 14:26:00,
2013-07-03 09:54:00,70.0,61.0,30.09,NNE,30,0.0,-999.0,73,-99.99,,,-99.99,,2013-07-03 14:54:00,
2013-07-03 10:05:00,70.0,61.0,30.09,NE,37,0.0,-999.0,72,-99.99,,,-99.99,,2013-07-03 15:05:00,
2013-07-03 10:14:00,70.0,61.0,30.09,NNW,340,0.0,-999.0,73,-99.99,,,-99.99,,2013-07-03 15:14:00,
2013-07-03 10:26:00,70.0,61.0,30.09,West,277,1.0,-999.0,72,-99.99,,,-99.99,,2013-07-03 15:26:00,
2013-07-03 10:37:00,70.0,60.0,30.08,North,355,0.0,-999.0,71,-99.99,,,-99.99,,2013-07-03 15:37:00,
2013-07-03 10:46:00,71.0,61.0,30.08,WNW,292,1.0,-999.0,71,-99.99,,,-99.99,,2013-07-03 15:46:00,
2013-07-03 10:55:00,71.0,61.0,30.09,North,360,1.0,-999.0,70,-99.99,,,-99.99,,2013-07-03 15:55:00,
2013-07-03 11:06:00,71.0,61.0,30.09,North,351,1.0,-999.0,70,-99.99,,,-99.99,,2013-07-03 16:06:00,
2013-07-03 11:16:00,72.0,61.0,30.09,North,360,1.0,-999.0,69,-99.99,,,-99.99,,2013-07-03 16:16:00,
2013-07-03 11:23:00,72.0,61.0,30.09,North,360,1.0,-999.0,69,-99.99,,,-99.99,,2013-07-03 16:23:00,
2013-07-03 11:37:00,72.0,61.0,30.09,ESE,110,1.0,-999.0,68,-99.99,,,-99.99,,2013-07-03 16:37:00,
2013-07-03 11:46:00,73.0,61.0,30.08,ENE,59,2.0,-999.0,67,-99.99,,,-99.99,,2013-07-03 16:46:00,
2013-07-03 11:55:00,74.0,61.0,30.08,NNE,32,1.0,-999.0,65,-99.99,,,-99.99,,2013-07-03 16:55:00,
2013-07-03 12:07:00,74.0,61.0,30.08,East,82,1.0,-999.0,64,-99.99,,,-99.99,,2013-07-03 17:07:00,
2013-07-03 12:15:00,75.0,62.0,30.08,NNE,32,1.0,-999.0,63,-99.99,,,-99.99,,2013-07-03 17:15:00,
2013-07-03 12:39:00,76.0,62.0,30.08,NNE,32,0.0,-999.0,61,-99.99,,,-99.99,,2013-07-03 17:39:00,
2013-07-03 12:43:00,76.0,62.0,30.07,ENE,63,1.0,-999.0,62,-99.99,,,-99.99,,2013-07-03 17:43:00,
2013-07-03 12:46:00,76.0,62.0,30.08,WNW,298,0.0,-999.0,61,-99.99,,,-99.99,,2013-07-03 17:46:00,
2013-07-03 12:53:00,76.0,61.0,30.08,ENE,66,0.0,-999.0,59,-99.99,,,-99.99,,2013-07-03 17:53:00,
2013-07-03 13:06:00,76.0,62.0,30.07,ENE,63,1.0,-999.0,62,-99.99,,,-99.99,,2013-07-03 18:06:00,
2013-07-03 13:15:00,76.0,62.0,30.07,ENE,63,1.0,-999.0,62,-99.99,,,-99.99,,2013-07-03 18:15:00,
2013-07-03 13:25:00,76.0,62.0,30.07,ENE,63,1.0,-999.0,62,-99.99,,,-99.99,,2013-07-03 18:25:00,
2013-07-03 13:36:00,76.0,62.0,30.07,ENE,63,1.0,-999.0,62,-99.99,,,-99.99,,2013-07-03 18:36:00,